Regional Weather Roundup
Issued by NWS

Home | Current Version | Previous Version | Text Only | Print | Product List | Glossary On
Versions: 1 2 3 4 5 6 7 8 9 10 11 12 13 14 15 16 17 18 19 20 21 22 23 24 25 26 27 28 29 30 31 32 33 34 35 36 37 38 39 40 41 42 43 44 45 46 47 48 49 50
000
ASCA42 TJSJ 200810
RWRPR
PUERTO RICO/U.S. VIRGIN ISLANDS HOURLY WEATHER ROUNDUP
NATIONAL WEATHER SERVICE SAN JUAN PR
400 AM AST FRI JAN 20 2017

PRZ001>002-007>008-010-200900-
PUERTO RICO

CITY           SKY/WX    TMP DP  RH WIND       PRES   REMARKS
SAN JUAN LMM   PTCLDY    70  64  83 CALM      29.96F
CEIBA          CLEAR     64  63  94 W3        29.97F
$$

VIZ001>002-200900-
U.S. VIRGIN ISLANDS

CITY           SKY/WX    TMP DP  RH WIND       PRES   REMARKS
CHARLOTTE AMA  PTCLDY    66  63  88 CALM      29.95S
CHRISTIANSTED  CLEAR     64  63  94 N6        29.95F
$$

HOURLY WEATHER ROUNDUP FOR THE NEWS MEDIA

CITY           SKY/WX    TMP DP  RH WIND       PRES   REMARKS
ORLANDO        PTCLDY    63  59  87 CALM      29.97F
NEW YORK       CLOUDY    42  27  55 NE10      30.04F
NEWARK         CLOUDY    42  34  73 CALM      30.02F
CHICAGO        LGT RAIN  38  37  97 NE10      29.65F FOG     WCI  31
HARTFORD       CLEAR     31  28  89 W3        30.00S
BOSTON         MOCLDY    35  29  78 N7        30.00F WCI  29
DALLAS         PTCLDY    56  49  77 SW8       29.61S
PHILADELPHIA   CLOUDY    33  31  92 CALM      30.04F
LOS ANGELES    MOCLDY    55  50  83 W15       29.87F
WASHINGTON DC  MOCLDY    34  31  88 CALM      30.00R


USA.gov is the U.S. government's official web portal to all federal, state and local government web resources and services.